Dewpoint
54 54 55 55 55 55 55 56 56 56 56 56 56 57 57 57 57 57 57 58 58 58 58 59 59 59 59 60 60 60 58 48 44 40 33 32 52 64 64 64 65 62 57 34 33 29 29 30 29 32 35 35 35 35 36 37 37 31 23 21 13 11 17 24 23 25 23 21 20 22 20 20 21 22 23 23 22 22 22 22 22 22 22 23 23 30 35 46
54 54 54 54 54 54 55 56 56 56 56 56 56 57 57 57 57 57 57 58 58 58 58 59 59 60 59 60 60 60 55 47 39 35 34 49 67 66 65 65 64 60 48 33 31 31 29 28 30 31 31 30 36 33 36 33 35 29 26 17 14 23 22 29 24 26 22 22 22 22 24 22 22 23 23 21 21 22 22 23 21 20 20 21 22 23 25 37
54 54 54 54 54 54 56 56 55 56 56 56 56 57 57 57 57 58 58 58 58 58 58 59 59 59 60 60 60 59 50 36 27 24 35 59 67 67 65 65 64 60 35 33 33 30 28 29 30 30 30 26 29 33 34 33 33 33 24 19 25 26 26 29 26 24 22 23 23 23 25 22 23 24 25 23 21 23 22 21 20 19 20 21 23 26 29 32
54 54 54 54 54 55 55 56 55 56 55 56 56 57 57 57 57 58 58 58 58 58 58 58 59 59 59 60 60 56 38 28 24 25 37 63 67 67 66 63 60 49 37 34 33 30 30 30 29 29 29 25 26 34 29 31 25 30 26 22 25 29 24 23 29 26 25 23 24 25 25 24 24 24 24 23 21 21 22 22 20 20 21 22 24 30 33 34
54 54 53 53 54 54 55 55 56 56 56 55 56 57 57 57 57 57 58 58 58 58 58 58 59 59 59 60 59 48 29 21 23 33 39 65 66 65 65 60 53 38 35 33 30 29 29 29 28 30 27 23 27 26 31 34 30 31 27 28 28 30 25 24 29 29 27 25 24 24 23 24 25 25 24 23 22 21 22 22 22 23 24 26 31 32 35 35
54 54 54 54 54 54 55 55 56 56 56 56 57 57 57 57 58 58 58 58 58 58 58 58 58 58 59 59 50 38 28 14 25 32 61 65 66 66 64 60 56 36 34 33 32 31 28 26 27 27 25 21 22 18 18 34 32 25 27 29 30 29 26 28 27 27 24 25 24 24 25 23 23 22 24 23 22 23 24 24 26 27 28 34 34 35 34 35
53 54 54 54 53 54 55 55 55 55 56 56 57 57 58 58 58 58 58 58 58 58 58 58 58 58 59 57 45 32 28 25 34 38 63 65 65 64 61 59 51 38 33 33 31 30 29 25 25 27 24 21 21 20 22 24 30 27 24 27 27 31 29 29 29 28 28 26 25 24 24 21 21 20 22 22 23 23 21 27 33 33 33 33 33 33 34 34
54 54 54 54 53 54 55 55 55 56 56 57 57 57 58 58 58 58 58 58 58 58 58 58 58 58 57 43 37 35 36 34 36 46 58 60 55 55 51 44 40 39 33 31 30 29 27 25 24 27 22 18 19 22 25 24 27 30 28 29 28 27 29 28 26 24 24 24 24 23 21 20 21 21 21 20 22 21 24 31 33 32 32 32 32 32 33 33
56 54 53 55 54 53 54 55 55 56 56 57 58 58 58 58 58 58 58 58 58 57 57 58 57 58 56 42 37 34 34 41 42 52 56 49 46 43 40 38 38 34 34 35 33 32 29 27 25 23 18 22 23 23 24 22 21 29 27 27 23 22 22 22 22 22 22 22 22 21 20 21 21 23 21 20 20 21 29 32 32 31 31 31 31 32 32 32
56 55 54 55 54 54 54 55 55 55 56 57 58 58 58 58 58 58 58 58 57 57 57 57 58 57 45 39 36 30 35 47 56 58 53 47 43 42 43 41 36 35 32 35 30 28 28 27 26 28 26 26 24 24 25 23 21 28 29 26 23 22 22 23 21 21 22 22 22 19 19 19 21 20 17 19 20 26 31 31 31 31 30 31 31 31 32 32
56 55 54 54 54 54 55 55 55 55 56 57 58 58 59 59 59 59 58 57 57 57 57 57 57 51 41 37 32 28 41 49 53 56 50 44 42 40 41 43 40 37 37 38 32 29 30 30 34 31 31 24 25 24 24 23 24 23 23 22 21 21 21 21 21 20 20 19 21 20 19 20 20 21 17 19 20 27 30 30 30 30 30 30 30 31 32 31
57 56 55 54 54 54 55 55 55 56 56 57 58 58 58 58 58 58 58 57 57 57 56 57 57 49 39 36 32 30 45 46 54 50 49 47 47 45 45 45 41 41 36 33 37 41 37 33 34 26 22 27 23 25 24 25 24 24 21 21 20 20 19 20 19 21 21 20 21 20 19 19 20 18 21 21 25 30 30 30 30 30 30 30 30 30 30 31
58 56 55 55 54 54 55 55 55 56 56 58 58 58 58 58 58 58 57 57 57 57 57 58 54 49 36 30 32 40 42 47 52 47 47 48 48 47 46 45 44 41 38 36 38 40 43 36 32 28 31 26 26 25 26 26 24 22 20 20 18 21 19 21 21 21 21 21 21 20 19 21 21 20 20 21 27 30 29 29 30 29 29 29 30 29 30 30
57 57 56 55 55 55 55 55 55 56 57 58 58 58 58 58 58 58 57 57 57 58 58 57 51 42 28 27 32 38 46 51 49 47 46 47 42 44 44 42 43 42 44 40 40 43 42 40 35 32 33 27 26 32 24 25 24 21 20 21 18 19 19 22 23 21 22 22 20 21 20 20 21 20 21 22 20 29 29 29 29 29 29 29 29 29 29 29
57 57 57 56 55 55 55 55 55 57 57 58 58 58 58 58 58 57 57 56 57 56 57 54 46 35 31 31 38 40 55 50 50 48 47 43 43 42 41 38 38 39 38 38 39 42 41 38 34 30 29 29 27 26 24 23 25 26 19 21 25 19 22 24 26 23 22 19 19 19 20 19 19 19 19 21 21 30 29 29 28 28 28 28 28 28 28 29
57 57 57 56 55 55 55 55 56 57 58 58 58 58 58 58 58 56 57 57 53 58 51 46 48 35 29 27 34 48 42 41 45 46 44 45 42 41 43 39 39 36 35 33 38 35 33 33 30 29 26 25 23 25 23 22 24 25 19 22 22 21 21 22 23 25 24 19 18 19 20 18 19 19 23 25 29 29 29 28 28 28 28 28 27 27 28 28
57 57 57 57 57 56 55 56 57 58 58 58 59 58 58 59 57 56 57 56 53 52 48 44 48 39 29 34 37 34 35 38 43 42 41 43 43 41 39 38 35 33 34 33 35 33 30 28 29 27 28 24 24 24 21 22 20 20 23 19 24 21 21 21 23 25 27 18 17 19 17 17 18 18 28 28 29 29 28 28 27 27 27 27 27 27 27 27
57 57 57 57 56 55 56 57 58 58 58 58 58 58 56 58 58 57 55 54 50 48 43 48 46 35 30 37 32 33 42 41 42 42 42 42 43 39 36 32 34 32 32 30 30 29 31 27 30 27 26 24 21 22 23 21 22 21 22 21 21 22 21 21 21 23 24 24 23 22 18 17 18 21 29 29 29 28 28 27 27 27 27 27 27 26 26 26
58 57 57 56 56 56 57 58 57 58 58 58 58 57 56 54 48 50 50 46 40 38 33 34 34 30 28 32 37 43 44 43 42 42 41 40 41 38 37 35 33 28 28 27 26 27 29 29 29 24 23 22 21 20 23 25 23 22 24 23 24 23 23 22 23 24 24 23 23 22 22 22 23 23 29 29 29 28 28 27 27 27 26 26 26 26 26 26
58 57 57 56 56 56 57 57 58 58 59 57 56 53 46 44 42 42 43 44 41 38 36 35 37 35 35 34 38 43 42 39 39 40 42 42 35 34 32 32 33 30 25 28 28 28 31 25 23 24 24 23 22 21 22 22 24 25 26 26 24 24 24 25 24 25 23 23 22 23 23 22 23 26 29 30 28 28 27 26 26 26 26 26 26 26 26 25
58 58 57 56 56 57 57 58 58 59 59 58 55 47 42 42 35 34 39 43 43 43 40 39 38 36 34 36 39 39 35 35 40 40 40 44 39 31 30 29 29 26 28 30 28 27 27 24 24 25 24 23 23 22 21 22 22 22 23 23 22 25 22 23 23 24 25 24 23 22 22 22 22 28 29 29 29 28 27 26 26 26 26 26 26 25 25 26
58 58 57 57 57 57 57 58 58 59 59 57 53 46 43 42 42 43 41 39 42 44 43 42 41 37 41 38 40 39 37 33 35 39 40 41 34 29 30 28 26 25 29 29 27 25 24 23 24 24 25 25 24 23 22 21 22 23 21 22 22 22 24 24 25 26 26 23 22 23 22 22 23 28 28 28 27 28 28 28 28 26 26 26 26 25 25 25
58 58 58 57 57 57 58 58 59 59 56 54 51 48 43 43 44 44 43 39 41 43 43 42 41 40 39 42 41 38 34 33 33 37 38 39 33 31 30 27 26 29 30 27 26 25 25 26 25 25 25 25 25 23 22 24 25 22 24 22 23 26 25 25 26 27 27 23 24 24 23 24 25 27 27 28 27 27 28 27 28 28 26 25 25 26 25 25
58 58 58 57 58 57 58 59 59 57 55 54 50 46 45 44 44 43 42 40 40 41 43 44 42 42 41 40 42 36 35 35 35 35 40 36 31 34 30 28 28 29 27 27 27 26 27 28 28 26 27 25 25 25 24 24 23 26 25 25 25 25 25 25 25 26 26 26 25 23 24 23 24 25 26 26 28 26 26 25 25 26 28 27 26 26 27 25
58 58 57 57 58 58 58 59 56 55 54 53 52 50 45 44 44 43 40 38 35 37 42 41 43 43 44 41 40 37 36 38 37 39 41 36 31 30 30 31 29 27 28 28 27 27 27 28 31 28 27 26 26 25 26 27 25 26 27 26 26 26 25 26 26 24 24 24 26 23 20 20 23 25 26 26 26 26 27 25 25 26 26 26 25 25 26 26
58 57 57 57 58 58 59 54 53 54 52 51 51 49 46 45 45 43 38 33 34 36 39 38 44 40 43 39 39 38 39 36 38 40 43 38 39 31 31 30 31 30 28 28 27 28 28 30 30 30 28 27 26 26 27 28 25 25 27 28 27 26 26 25 25 25 21 20 23 23 19 17 23 23 25 26 25 25 25 26 26 25 26 26 26 26 26 26
58 57 57 57 58 59 55 51 51 53 49 50 49 46 46 45 45 44 38 32 31 36 38 41 40 39 39 37 38 40 34 36 38 40 38 40 35 38 31 30 31 30 30 29 31 30 30 30 29 29 28 28 26 26 28 27 27 26 27 28 28 27 26 25 25 26 24 25 26 24 22 19 19 22 26 26 25 24 24 24 25 25 26 25 26 27 26 26
58 57 57 58 58 58 55 52 52 51 50 50 48 47 47 46 45 43 37 29 28 36 35 37 38 40 38 34 38 38 36 37 36 37 37 39 37 34 32 31 31 31 29 32 29 31 30 28 28 28 28 27 28 29 29 30 28 28 28 28 27 27 26 26 26 24 23 22 22 23 24 20 19 22 24 26 24 24 24 24 24 25 25 25 25 26 25 26
57 57 57 57 58 58 57 53 52 51 50 48 48 48 47 46 43 40 35 30 34 33 36 34 40 35 34 35 33 33 32 30 34 35 36 36 37 34 32 32 31 29 29 32 31 30 28 29 29 30 29 28 28 28 29 30 27 27 28 27 27 26 25 25 23 22 21 20 17 21 23 17 20 23 24 24 23 24 24 24 24 25 25 25 25 25 26 26
57 57 57 57 58 57 57 56 54 53 49 49 48 47 47 44 41 35 32 29 35 32 33 34 33 32 34 34 34 29 30 29 33 33 33 34 33 33 30 33 29 29 28 28 28 31 28 33 33 29 29 30 29 28 29 29 28 29 27 26 25 24 23 23 22 20 17 14 20 22 23 21 18 21 22 23 24 24 25 24 25 26 26 26 26 25 25 25
57 57 57 57 55 56 57 54 56 49 49 49 48 48 47 44 39 34 31 34 37 32 32 32 31 35 34 34 34 32 28 29 32 33 32 33 31 30 29 31 30 28 26 27 26 27 28 27 27 27 31 29 28 27 27 28 27 27 25 25 25 24 18 17 13 19 14 13 15 19 22 21 16 18 22 24 25 25 24 23 24 24 24 24 25 26 26 26
56 56 57 57 57 58 55 53 56 50 49 49 48 46 46 38 40 34 34 37 33 34 31 31 29 32 34 30 30 28 28 30 30 32 31 30 30 29 28 31 29 24 25 26 28 25 27 28 29 28 33 29 27 27 26 27 26 27 25 24 19 15 15 11 10 13 13 15 17 22 22 20 20 20 22 23 25 26 26 25 24 23 23 24 24 25 26 25
56 56 56 57 57 56 57 55 53 50 50 51 49 48 42 37 31 38 36 34 33 32 30 31 29 31 33 32 30 27 28 29 29 31 30 29 31 30 30 29 29 29 25 24 28 24 27 27 27 28 27 30 30 26 24 24 25 25 25 23 18 13 13 9 8 4 9 13 18 21 21 18 20 22 24 24 26 26 26 26 26 24 23 23 24 25 26 25
56 56 56 56 57 57 56 54 53 52 50 52 49 44 40 33 34 41 38 35 34 32 30 28 28 30 32 32 31 28 28 27 31 30 30 29 29 29 31 31 28 27 26 25 27 26 20 21 26 29 28 30 29 28 27 27 25 25 25 24 23 16 8 11 5 12 14 15 16 17 12 13 14 17 24 25 25 25 26 26 27 25 24 23 24 25 25 24
56 55 56 56 56 58 55 54 53 52 52 52 47 42 35 34 35 36 37 37 34 33 31 30 29 30 30 28 29 28 30 26 29 29 28 30 29 29 30 31 30 29 27 25 26 23 25 25 26 28 29 29 28 29 28 26 25 24 25 25 20 21 20 15 13 8 6 11 11 14 16 19 20 24 27 24 24 24 25 25 27 25 24 25 25 25 24 24
56 55 56 54 54 56 57 54 53 54 53 49 43 38 36 37 34 35 36 38 35 31 30 30 29 27 26 27 29 27 29 26 28 28 26 28 28 29 29 30 31 29 27 26 25 22 23 22 26 28 28 28 28 29 27 27 22 24 25 21 25 25 22 15 16 15 12 10 17 10 19 22 24 25 24 23 23 23 24 24 24 24 24 24 24 24 24 24
54 55 52 53 54 56 57 55 54 54 52 47 42 37 40 38 39 37 42 37 35 30 29 28 28 26 26 26 27 29 28 31 29 27 25 28 26 29 27 29 31 30 28 28 26 26 23 23 27 27 27 28 28 29 28 28 28 25 20 24 27 26 26 21 15 11 5 12 14 14 16 19 18 18 23 23 23 23 23 23 23 23 24 23 23 23 23 23
53 53 52 52 53 56 57 56 54 53 49 45 39 40 41 40 42 40 39 35 32 31 30 32 31 29 27 26 26 29 29 28 28 26 25 27 25 30 28 28 30 31 29 29 25 27 27 22 25 28 27 28 28 28 28 28 28 25 24 27 24 19 19 22 16 12 11 10 10 14 18 19 20 20 22 22 23 23 23 23 23 23 23 22 22 23 23 23
53 52 48 52 55 56 56 56 54 50 46 41 40 40 42 41 42 39 39 37 38 33 31 33 33 31 30 26 27 29 30 27 28 26 25 27 24 29 28 30 30 31 30 28 26 27 27 22 24 28 27 28 27 28 25 25 27 27 27 25 26 23 20 18 20 15 16 8 7 14 12 16 21 21 22 21 23 24 23 23 22 22 22 22 22 22 23 23
50 46 46 52 55 55 55 55 50 47 44 38 41 41 42 41 42 43 40 38 38 35 36 35 36 33 33 30 30 28 31 30 27 26 27 28 27 31 27 33 29 30 30 29 28 31 27 27 21 25 28 27 25 26 25 26 25 24 25 24 25 21 24 24 20 18 17 7 8 12 15 16 20 22 23 21 22 24 24 23 23 22 22 22 22 22 22 23
50 46 45 51 54 55 54 51 45 42 41 43 43 41 41 41 42 42 42 44 43 43 39 38 38 34 35 34 32 34 32 32 30 28 29 29 27 26 30 31 31 30 33 30 29 31 27 25 25 24 25 25 26 27 27 27 27 26 25 24 25 24 21 20 20 22 14 16 15 11 17 16 23 26 24 24 24 24 24 24 23 23 22 22 22 21 22 23
47 41 44 51 53 54 50 43 43 45 42 41 41 42 41 46 42 42 42 43 43 41 43 41 40 39 37 35 36 34 32 33 32 31 30 30 31 31 32 33 31 32 31 29 28 33 30 29 26 22 26 27 28 28 29 28 28 28 27 26 27 25 25 19 19 18 17 22 17 14 15 20 25 26 27 28 27 25 25 24 23 23 22 22 22 22 23 23
46 44 46 49 53 52 48 43 43 42 42 42 44 43 44 42 42 42 42 42 40 42 41 40 40 39 39 38 37 35 36 32 32 30 31 30 32 34 35 36 34 36 36 33 34 33 34 26 22 24 26 27 29 30 31 30 30 29 29 27 25 25 26 25 22 22 22 20 19 18 19 24 28 27 26 25 26 26 25 24 24 23 23 22 22 22 22 23
45 43 45 49 52 52 46 38 38 40 42 42 43 42 43 43 42 41 41 42 41 41 41 40 40 42 39 40 37 36 37 32 35 33 32 34 32 37 36 37 35 35 33 32 30 36 28 30 28 23 22 25 27 28 29 30 29 26 27 28 27 27 27 27 27 27 24 24 25 22 20 23 28 28 26 24 24 24 24 24 24 24 24 23 22 22 23 23
43 43 44 46 49 48 41 43 42 40 41 41 41 41 41 41 42 42 41 41 42 42 40 39 41 42 40 40 39 38 39 37 33 35 35 34 34 36 36 36 36 35 37 37 38 36 30 31 29 25 24 23 22 22 25 27 29 29 29 28 29 28 28 27 25 26 25 27 26 22 24 25 28 27 26 25 24 24 24 24 24 24 24 23 23 23 23 23
40 35 40 41 45 44 43 42 41 41 40 40 40 41 41 40 41 42 43 42 43 41 41 40 39 42 39 39 37 37 37 38 36 34 34 34 34 34 35 34 36 36 38 39 36 34 31 32 31 30 27 26 26 26 28 29 27 27 27 29 30 30 30 30 27 25 25 25 25 26 25 24 25 25 25 25 23 24 24 25 24 24 25 25 23 23 23 23
40 36 36 34 41 41 39 41 40 41 39 42 37 39 39 40 40 40 43 40 42 42 39 40 39 39 37 38 37 37 37 36 35 34 34 33 33 34 34 34 35 37 38 37 36 34 32 31 31 30 29 29 27 26 27 31 29 30 30 29 31 31 29 28 27 26 28 24 23 27 25 23 25 25 25 25 26 25 24 25 25 25 25 25 25 24 27 24
37 37 40 41 37 34 36 37 40 39 40 41 38 38 39 39 39 37 41 41 41 42 40 38 39 41 39 39 38 35 36 36 35 35 33 33 34 34 34 34 33 35 35 33 34 34 32 31 30 31 31 32 29 28 28 29 30 30 30 30 29 29 26 26 27 28 26 26 24 25 25 24 26 26 26 26 25 25 25 25 25 25 26 26 25 25 25 25
39 36 38 41 37 37 38 38 39 39 39 39 37 37 37 38 38 39 38 37 40 39 42 37 38 39 39 40 39 36 36 34 34 35 34 33 33 33 33 33 33 32 33 31 32 31 32 30 31 31 31 32 30 28 29 28 27 25 25 27 28 27 26 27 27 28 28 27 27 25 25 25 26 25 27 27 27 26 26 26 26 26 26 27 26 26 26 25
35 36 34 38 37 35 37 38 38 38 35 38 34 34 36 36 38 37 38 38 35 37 40 39 38 38 38 38 39 37 36 37 34 34 34 34 33 33 32 33 32 32 31 32 32 32 33 28 31 26 26 26 24 25 25 25 26 26 27 26 26 24 25 26 27 25 24 24 25 25 25 25 26 26 26 25 25 27 26 26 26 25 25 26 26 26 26 26
38 37 38 37 34 34 35 36 37 36 33 34 33 35 35 35 36 38 37 39 38 36 39 39 38 37 36 38 38 37 38 36 35 35 35 35 34 34 34 33 34 31 30 30 29 30 29 27 23 25 28 25 22 25 22 21 21 23 26 27 24 24 23 23 23 24 24 24 25 23 23 25 26 24 25 24 23 24 25 26 24 24 24 24 25 26 26 26
38 38 39 38 33 37 33 34 33 34 32 35 35 35 35 34 37 38 34 38 39 39 39 39 39 38 35 36 36 37 39 38 38 33 35 35 35 33 33 33 34 33 31 31 28 29 29 26 25 24 27 27 21 24 22 22 23 24 26 26 25 25 25 22 24 24 25 25 23 23 24 25 23 23 22 22 23 22 22 21 22 22 23 23 23 23 24 24